KC0NAX Weather Reports


Display with metric or nautical units.
time (UTC)temp
F
wind
direction
speed
MPH
gust
MPH
rain 1hr
in
rain 24hr
in
rain mn
in
humidity
%
barometer
mb
20260505054849 66 204 2.0 4.0 0.00 0.00 0.00 68 1006.2
20260505054348 66 184 3.0 5.0 0.00 0.00 0.00 67 1006.3
20260505053848 67 191 3.0 5.0 0.00 0.00 0.00 67 1006.2
20260505053350 67 218 5.0 6.0 0.00 0.00 0.00 66 1006.3
20260505052849 67 190 6.0 9.0 0.00 0.00 0.00 66 1006.3
20260505052348 67 170 2.0 6.0 0.00 0.00 0.00 66 1006.3
20260505051848 67 220 2.0 4.0 0.00 0.00 0.00 66 1006.3
20260505051349 67 202 7.0 11.0 0.00 0.00 0.00 66 1006.3
20260505050848 67 204 6.0 10.0 0.00 0.00 0.00 66 1006.3
20260505050348 67 188 5.0 8.0 0.00 0.00 0.00 66 1006.1
20260505041349 68 197 5.0 8.0 0.00 0.00 0.00 64 1006.2
20260505040848 68 202 7.0 11.0 0.00 0.00 0.00 64 1006.3
20260505040349 68 193 7.0 11.0 0.00 0.00 0.00 64 1006.4
20260505035850 68 199 5.0 9.0 0.00 0.00 0.00 64 1006.5
20260505035351 68 190 5.0 8.0 0.00 0.00 0.00 65 1006.6
20260505034849 68 195 4.0 8.0 0.00 0.00 0.00 65 1006.7
20260505034348 68 210 6.0 9.0 0.00 0.00 0.00 65 1006.7
20260505033849 68 217 3.0 6.0 0.00 0.00 0.00 65 1006.8
20260505033349 68 228 3.0 6.0 0.00 0.00 0.00 65 1006.8
20260505032849 67 221 5.0 9.0 0.00 0.00 0.00 65 1006.9
20260505032349 67 205 4.0 6.0 0.00 0.00 0.00 66 1006.9
20260505031849 68 205 4.0 5.0 0.00 0.00 0.00 66 1006.8
20260505031348 68 195 4.0 6.0 0.00 0.00 0.00 66 1006.8
20260505030849 67 213 3.0 5.0 0.00 0.00 0.00 66 1006.9
20260505030350 67 199 2.0 3.0 0.00 0.00 0.00 66 1006.9
20260505025851 67 201 3.0 4.0 0.00 0.00 0.00 65 1007.0
20260505025350 67 186 2.0 6.0 0.00 0.00 0.00 66 1006.9
20260505024852 67 221 1.0 2.0 0.00 0.00 0.00 66 1006.9
20260505024352 67 214 0.0 2.0 0.00 0.00 0.00 66 1006.8
20260505023849 68 204 1.0 2.0 0.00 0.00 0.00 65 1006.8
20260505023350 69 217 0.0 2.0 0.00 0.00 0.00 63 1006.8
20260505022851 69 269 1.0 1.0 0.00 0.00 0.00 63 1006.7
20260505022350 69 226 3.0 4.0 0.00 0.00 0.00 62 1006.6
20260505021850 70 207 3.0 6.0 0.00 0.00 0.00 61 1006.5
20260505021351 70 243 2.0 4.0 0.00 0.00 0.00 61 1006.5
20260505020851 70 283 2.0 2.0 0.00 0.00 0.00 60 1006.5
20260505020349 71 246 2.0 4.0 0.00 0.00 0.00 58 1006.4
20260505015849 71 246 2.0 3.0 0.00 0.00 0.00 58 1006.3
20260505015349 71 223 3.0 5.0 0.00 0.00 0.00 58 1006.1
20260505014848 72 202 4.0 5.0 0.00 0.00 0.00 57 1006.1
20260505014348 72 217 3.0 4.0 0.00 0.00 0.00 56 1006.1
20260505013849 72 230 5.0 8.0 0.00 0.00 0.00 55 1006.1
20260505013349 72 216 4.0 5.0 0.00 0.00 0.00 55 1006.0
20260505012848 72 213 4.0 6.0 0.00 0.00 0.00 55 1005.9
20260505012348 73 227 3.0 4.0 0.00 0.00 0.00 55 1005.9
20260505011849 73 217 4.0 7.0 0.00 0.00 0.00 54 1005.9
20260505011350 73 220 3.0 5.0 0.00 0.00 0.00 53 1005.8
20260505010849 73 210 4.0 5.0 0.00 0.00 0.00 53 1005.7
20260505010349 73 221 5.0 8.0 0.00 0.00 0.00 53 1005.6
20260505005850 74 225 4.0 9.0 0.00 0.00 0.00 53 1005.6
20260505005350 74 219 6.0 9.0 0.00 0.00 0.00 51 1005.6
20260505004850 74 200 7.0 9.0 0.00 0.00 0.00 52 1005.5
20260505004348 74 211 2.0 5.0 0.00 0.00 0.00 53 1005.5
20260505003850 74 211 4.0 6.0 0.00 0.00 0.00 52 1005.5
20260505003348 74 209 2.0 6.0 0.00 0.00 0.00 52 1005.4
20260505002848 75 217 4.0 6.0 0.00 0.00 0.00 51 1005.3
20260505002349 75 230 3.0 5.0 0.00 0.00 0.00 50 1005.3
20260505001849 75 213 5.0 8.0 0.00 0.00 0.00 50 1005.2
20260505001350 75 209 3.0 4.0 0.00 0.00 0.00 50 1005.3
20260505000849 76 210 4.0 7.0 0.00 0.00 0.00 48 1005.3
20260505000350 76 212 7.0 10.0 0.00 0.00 0.00 48 1005.4
20260504235848 76 240 6.0 10.0 0.00 0.00 0.00 49 1005.4
20260504235349 76 210 3.0 5.0 0.00 0.00 0.00 49 1005.4
20260504234848 76 231 4.0 6.0 0.00 0.00 0.00 48 1005.4
20260504234348 77 248 4.0 6.0 0.00 0.00 0.00 49 1005.5
20260504233848 77 242 4.0 7.0 0.00 0.00 0.00 47 1005.4
20260504233349 78 236 5.0 7.0 0.00 0.00 0.00 46 1005.4
20260504232848 78 268 4.0 8.0 0.00 0.00 0.00 44 1005.4
20260504232348 79 230 5.0 9.0 0.00 0.00 0.00 45 1005.4
20260504231850 79 221 6.0 8.0 0.00 0.00 0.00 46 1005.4
20260504231348 79 219 6.0 12.0 0.00 0.00 0.00 47 1005.4
20260504230849 79 238 6.0 10.0 0.00 0.00 0.00 46 1005.4
20260504230348 79 232 8.0 12.0 0.00 0.00 0.00 46 1005.5
20260504225848 79 198 5.0 8.0 0.00 0.00 0.00 47 1005.5
20260504225349 79 219 5.0 8.0 0.00 0.00 0.00 47 1005.4
20260504224848 79 207 8.0 15.0 0.00 0.00 0.00 46 1005.4
20260504224348 79 230 6.0 9.0 0.00 0.00 0.00 47 1005.4
20260504223849 79 223 9.0 12.0 0.00 0.00 0.00 46 1005.5
20260504223348 80 229 6.0 9.0 0.00 0.00 0.00 46 1005.5
20260504222849 80 235 4.0 8.0 0.00 0.00 0.00 47 1005.5
20260504222351 79 245 5.0 7.0 0.00 0.00 0.00 47 1005.4
20260504221848 79 208 5.0 7.0 0.00 0.00 0.00 49 1005.4
20260504221348 79 216 8.0 11.0 0.00 0.00 0.00 46 1005.5
20260504220409 79 252 3.0 6.0 0.00 0.00 0.00 47 1005.5
20260504215849 79 245 8.0 14.0 0.00 0.00 0.00 46 1005.5
20260504215348 79 210 5.0 9.0 0.00 0.00 0.00 47 1005.4
20260504214849 79 202 5.0 7.0 0.00 0.00 0.00 48 1005.5
20260504214349 79 194 8.0 12.0 0.00 0.00 0.00 47 1005.5
20260504213849 79 242 9.0 12.0 0.00 0.00 0.00 47 1005.6
20260504213349 78 248 8.0 13.0 0.00 0.00 0.00 46 1005.6
20260504212850 79 218 8.0 10.0 0.00 0.00 0.00 48 1005.6
20260504212350 79 232 6.0 9.0 0.00 0.00 0.00 48 1005.6
20260504211848 79 231 9.0 13.0 0.00 0.00 0.00 46 1005.7
20260504211350 79 222 6.0 10.0 0.00 0.00 0.00 46 1005.8
20260504210850 79 233 7.0 9.0 0.00 0.00 0.00 46 1005.9
20260504210349 79 225 8.0 13.0 0.00 0.00 0.00 47 1006.0
20260504205850 79 222 8.0 11.0 0.00 0.00 0.00 46 1006.0
20260504205348 79 206 8.0 16.0 0.00 0.00 0.00 47 1006.0
20260504204850 79 225 6.0 8.0 0.00 0.00 0.00 46 1006.1
20260504204348 79 234 10.0 15.0 0.00 0.00 0.00 44 1006.1
20260504203849 80 232 8.0 13.0 0.00 0.00 0.00 45 1006.1
20260504203348 80 218 8.0 13.0 0.00 0.00 0.00 46 1006.3
20260504202849 80 238 6.0 9.0 0.00 0.00 0.00 45 1006.3
20260504202348 79 195 9.0 12.0 0.00 0.00 0.00 48 1006.4
20260504201850 79 203 10.0 13.0 0.00 0.00 0.00 47 1006.3
20260504201348 79 214 7.0 12.0 0.00 0.00 0.00 48 1006.5
20260504200849 79 195 11.0 14.0 0.00 0.00 0.00 47 1006.6
20260504200355 80 221 10.0 14.0 0.00 0.00 0.00 46 1006.5
20260504195852 80 211 11.0 15.0 0.00 0.00 0.00 47 1006.5
20260504195348 80 199 8.0 15.0 0.00 0.00 0.00 47 1006.6
20260504194849 79 226 8.0 13.0 0.00 0.00 0.00 48 1006.7
20260504194350 79 216 9.0 15.0 0.00 0.00 0.00 46 1006.7
20260504193848 79 211 10.0 14.0 0.00 0.00 0.00 47 1006.8
20260504193349 79 190 9.0 13.0 0.00 0.00 0.00 47 1006.9
20260504192849 79 247 10.0 13.0 0.00 0.00 0.00 45 1006.9
20260504192349 79 226 10.0 13.0 0.00 0.00 0.00 46 1006.9
20260504191849 79 223 7.0 11.0 0.00 0.00 0.00 47 1007.0
20260504191348 79 206 9.0 12.0 0.00 0.00 0.00 47 1006.9
20260504190849 79 214 9.0 14.0 0.00 0.00 0.00 46 1006.8
20260504190350 79 262 7.0 11.0 0.00 0.00 0.00 46 1006.8
20260504185851 79 246 9.0 13.0 0.00 0.00 0.00 45 1006.8
20260504185351 79 243 9.0 11.0 0.00 0.00 0.00 45 1007.0
20260504184848 79 235 10.0 17.0 0.00 0.00 0.00 45 1007.0
20260504184351 79 221 9.0 14.0 0.00 0.00 0.00 46 1007.1
20260504183854 79 237 7.0 12.0 0.00 0.00 0.00 46 1007.1
20260504183352 79 256 8.0 11.0 0.00 0.00 0.00 44 1007.1
20260504182850 79 262 9.0 12.0 0.00 0.00 0.00 46 1007.2
20260504182352 78 218 7.0 11.0 0.00 0.00 0.00 46 1007.1
20260504181853 79 203 11.0 15.0 0.00 0.00 0.00 46 1007.1
20260504181351 79 212 6.0 9.0 0.00 0.00 0.00 47 1007.1
20260504180850 79 240 8.0 10.0 0.00 0.00 0.00 46 1007.0
20260504180350 79 245 7.0 11.0 0.00 0.00 0.00 45 1007.0
20260504175849 78 268 6.0 9.0 0.00 0.00 0.00 46 1006.9
20260504175351 78 224 9.0 12.0 0.00 0.00 0.00 46 1007.0
20260504174858 78 234 11.0 17.0 0.00 0.00 0.00 45 1007.2
20260504174352 78 274 5.0 9.0 0.00 0.00 0.00 46 1007.1
20260504173853 78 266 10.0 14.0 0.00 0.00 0.00 46 1007.0
20260504173350 78 214 9.0 13.0 0.00 0.00 0.00 47 1007.1
20260504172850 78 217 8.0 13.0 0.00 0.00 0.00 47 1007.0
20260504172350 78 234 7.0 10.0 0.00 0.00 0.00 46 1007.1
20260504171849 77 243 7.0 12.0 0.00 0.00 0.00 47 1007.2
20260504171350 77 264 7.0 11.0 0.00 0.00 0.00 46 1007.1
20260504170851 77 233 9.0 11.0 0.00 0.00 0.00 47 1007.2
20260504170349 77 227 7.0 11.0 0.00 0.00 0.00 49 1007.2
20260504160351 75 245 7.0 11.0 0.00 0.00 0.00 47 1007.5
20260504150852 72 234 8.0 10.0 0.00 0.00 0.00 47 1008.2
20260504150351 72 220 10.0 15.0 0.00 0.00 0.00 47 1008.2
20260504140853 69 221 9.0 13.0 0.00 0.00 0.00 50 1008.8
20260504140354 69 239 6.0 9.0 0.00 0.00 0.00 52 1008.8
20260504130351 65 223 6.0 9.0 0.00 0.00 0.00 55 1009.0
20260504110350 64 230 4.0 6.0 0.00 0.00 0.00 55 1009.5
20260504100350 64 217 5.0 9.0 0.00 0.00 0.00 53 1009.6
20260504081848 66 238 5.0 8.0 0.00 0.00 0.00 52 1009.8
20260504081350 66 236 6.0 8.0 0.00 0.00 0.00 52 1009.8
20260504080849 66 243 4.0 7.0 0.00 0.00 0.00 53 1009.9
20260504080349 66 230 5.0 8.0 0.00 0.00 0.00 52 1010.0
20260504070350 67 241 6.0 10.0 0.00 0.00 0.00 53 1010.4